MEASAT-3A

Last updated on Mon Oct 14 2024 00:02:38 GMT+0000 (Coordinated Universal Time)

1 35362U 09032A 24287.59722123 -.00000112 00000+0 00000+0 0 9990 2 35362 0.0147 138.3708 0002229 99.5954 159.6525 1.00271719 1898
UTC large
Height (km)
Speed (km/s)
/
Latitude / Longitude
Inclination (degrees)
Orbital Period (minutes)
Azimuth
Elevation
Range (km)
Doppler Factor

Next 0 passes for location: London (51.5072 / 0.1276)

Sorry there are no passes over London.